Weather History for KBIX - August, 2013

Change the Weather History Date:

Saturday, August 17, 2013

  Actual Average Record
Temperature  
Mean Temperature 74 °F -  
Max Temperature 77 °F 90 °F 97 °F (1952)
Min Temperature 72 °F 75 °F 66 °F (2004)
Cooling Degree Days 10    
Growing Degree Days 24 (Base 50)    
Moisture  
Dew Point 72 °F    
Average Humidity 89    
Maximum Humidity 95    
Minimum Humidity 78    
Precipitation  
Precipitation 0.22 in - - ()
Sea Level Pressure  
Sea Level Pressure 29.97 in    
Wind  
Wind Speed 8 mph (East)    
Max Wind Speed 13 mph    
Max Gust Speed -    
Visibility 10 miles    
Events Rain    
Averages and records for this station are not official NWS values.
T = Trace of Precipitation, MM = Missing Value Source: NWS Daily Summary

Daily Weather History Graph

Daily Weather History Graph

Search for Another Location

Airport or City:

Trip Planner

Search our weather history database for the weather conditions in past years. The results will help you decide how hot, cold, wet, or windy it might be!

Date:

Astronomy

Aug. 17, 2013 Rise Set
Actual Time 6:23 AM CDT 7:35 PM CDT
Civil Twilight 5:58 AM CDT 8:00 PM CDT
Nautical Twilight 5:28 AM CDT 8:29 PM CDT
Astronomical Twilight 4:57 AM CDT 9:00 PM CDT
Moon 4:43 PM CDT (8/17) 2:34 AM CDT (8/17)
Length of Visible Light 14h 01m
Length of Day
13h 11m
Waxing Gibbous, 84% of the Moon is Illuminated
Aug 17
Waxing Gibbous
Aug 20
Full
Aug 28
Last Quarter
Sep 5
New
Sep 12
First Quarter

Hourly Weather History & Observations

Time (CDT) Temp. Dew Point Humidity Pressure Visibility Wind Dir Wind Speed Gust Speed Precip Events Conditions
2:58 AM 73.6 °F 71.6 °F 93% 29.96 in 10.0 mi ENE 5.8 mph - N/A   Overcast
3:38 AM 75.2 °F 73.4 °F 94% 29.94 in 10.0 mi East 8.1 mph - N/A   Mostly Cloudy
3:58 AM 74.3 °F 72.3 °F 94% 29.95 in 10.0 mi NNE 5.8 mph - 0.00 in   Scattered Clouds
4:38 AM 73.4 °F 71.6 °F 94% 29.93 in 10.0 mi NE 8.1 mph - N/A   Mostly Cloudy
4:53 AM 73.4 °F 71.6 °F 94% 29.93 in 10.0 mi NE 8.1 mph - N/A   Overcast
4:58 AM 73.4 °F 72.0 °F 95% 29.93 in 10.0 mi NE 8.1 mph - N/A   Overcast
5:43 AM 73.4 °F 71.6 °F 94% 29.93 in 10.0 mi NE 5.8 mph - N/A   Mostly Cloudy
5:58 AM 72.9 °F 71.4 °F 95% 29.94 in 10.0 mi NNE 6.9 mph - N/A   Mostly Cloudy
6:03 AM 73.4 °F 71.6 °F 94% 29.95 in 10.0 mi NE 5.8 mph - N/A   Mostly Cloudy
6:08 AM 73.4 °F 71.6 °F 94% 29.95 in 10.0 mi NE 6.9 mph - N/A   Mostly Cloudy
6:23 AM 73.4 °F 71.6 °F 94% 29.95 in 10.0 mi NE 9.2 mph - N/A   Overcast
6:58 AM 72.9 °F 71.4 °F 95% 29.96 in 8.0 mi NE 9.2 mph - N/A   Overcast
7:03 AM 73.4 °F 71.6 °F 94% 29.95 in 9.0 mi NE 9.2 mph - N/A   Overcast
7:38 AM 73.4 °F 71.6 °F 94% 29.97 in 10.0 mi East 10.4 mph - N/A   Overcast
7:58 AM 74.5 °F 72.7 °F 94% 29.97 in 10.0 mi ENE 10.4 mph - N/A   Overcast
8:28 AM 75.2 °F 73.4 °F 94% 29.98 in 10.0 mi NE 8.1 mph - N/A   Overcast
8:58 AM 75.6 °F 72.7 °F 91% 30.00 in 10.0 mi East 11.5 mph - N/A   Overcast
9:40 AM 77.0 °F 71.6 °F 83% 29.98 in 10.0 mi East 10.4 mph - N/A   Overcast
9:45 AM 77.0 °F 71.6 °F 83% 29.98 in 10.0 mi East 12.7 mph - N/A   Mostly Cloudy
9:58 AM 77.0 °F 71.6 °F 83% 29.99 in 10.0 mi East 11.5 mph - N/A   Mostly Cloudy
10:55 AM 76.3 °F 70.2 °F 81% 30.00 in 10.0 mi ENE 6.9 mph - N/A   Partly Cloudy
11:58 AM 75.2 °F 71.6 °F 89% 29.99 in 10.0 mi ENE 9.2 mph - N/A   Clear
12:58 PM 76.5 °F 70.2 °F 81% 30.01 in 10.0 mi ENE 10.4 mph - N/A   Mostly Cloudy
1:08 PM 77.0 °F 69.8 °F 78% 30.00 in 10.0 mi East 9.2 mph - N/A   Mostly Cloudy
1:16 PM 77.0 °F 69.8 °F 78% 30.01 in 10.0 mi ENE 8.1 mph - N/A   Scattered Clouds
1:26 PM 77.0 °F 69.8 °F 78% 30.00 in 10.0 mi East 9.2 mph - N/A   Mostly Cloudy
1:55 PM 76.8 °F 70.7 °F 81% 30.00 in 10.0 mi ENE 6.9 mph - N/A   Scattered Clouds
2:58 PM 77.0 °F 71.6 °F 83% 29.99 in 10.0 mi ENE 9.2 mph - N/A   Mostly Cloudy
3:29 PM 77.0 °F 71.6 °F 83% 29.97 in 10.0 mi ENE 9.2 mph - N/A   Overcast
3:38 PM 77.0 °F 71.6 °F 83% 29.97 in 10.0 mi ENE 8.1 mph - N/A Rain Light Rain
3:54 PM 77.0 °F 71.6 °F 83% 29.97 in 10.0 mi ENE 9.2 mph - N/A   Overcast
3:58 PM 76.5 °F 72.5 °F 87% 29.99 in 10.0 mi ENE 8.1 mph - 0.00 in   Overcast
4:55 PM 77.2 °F 71.4 °F 82% 29.98 in 10.0 mi ESE 9.2 mph - N/A   Mostly Cloudy
6:58 PM 74.1 °F 71.8 °F 92% 29.99 in 10.0 mi ENE 5.8 mph - 0.01 in   Overcast
7:10 PM 73.4 °F 71.6 °F 94% 29.98 in 10.0 mi ENE 6.9 mph - N/A Rain Light Rain
7:15 PM 73.4 °F 71.6 °F 94% 29.97 in 7.0 mi ENE 8.1 mph - N/A Rain Light Rain
7:30 PM 73.4 °F 71.6 °F 94% 29.97 in 4.0 mi East 5.8 mph - N/A Rain Light Rain
7:38 PM 73.4 °F 71.6 °F 94% 29.97 in 10.0 mi NE 4.6 mph - N/A   Overcast
7:43 PM 73.4 °F 71.6 °F 94% 29.97 in 10.0 mi NE 8.1 mph - N/A   Overcast
7:48 PM 73.4 °F 71.6 °F 94% 29.97 in 10.0 mi East 6.9 mph - N/A   Overcast
7:58 PM 74.5 °F 71.8 °F 91% 29.98 in 10.0 mi SSE 8.1 mph - 0.07 in   Overcast
8:39 PM 75.2 °F 71.6 °F 89% 29.98 in 10.0 mi SSE 11.5 mph - N/A   Mostly Cloudy
8:44 PM 77.0 °F 71.6 °F 83% 29.98 in 10.0 mi SSE 10.4 mph - N/A   Overcast
8:49 PM 77.0 °F 71.6 °F 83% 29.98 in 10.0 mi SSE 9.2 mph - N/A   Overcast
8:58 PM 76.3 °F 71.6 °F 85% 29.98 in 10.0 mi SE 8.1 mph - N/A   Overcast
9:18 PM 77.0 °F 71.6 °F 83% 29.97 in 10.0 mi SE 10.4 mph - N/A   Overcast
9:56 PM 77.0 °F 71.6 °F 83% 29.98 in 10.0 mi SSE 11.5 mph - N/A Rain Light Rain
10:00 PM 75.2 °F 71.6 °F 89% 29.98 in 10.0 mi SSE 12.7 mph - N/A   Overcast
10:15 PM 75.2 °F 71.6 °F 89% 29.98 in 10.0 mi SSE 10.4 mph - N/A   Overcast
10:41 PM 75.2 °F 71.6 °F 89% 29.97 in 10.0 mi SSE 10.4 mph - N/A   Overcast
10:58 PM 75.2 °F 71.6 °F 89% 29.97 in 10.0 mi ESE 9.2 mph - 0.00 in   Overcast
11:33 PM 75.2 °F 71.6 °F 89% 29.97 in 7.0 mi East 8.1 mph - N/A Rain Light Rain
11:59 PM 74.1 °F 72.3 °F 94% 29.97 in 10.0 mi ENE 5.8 mph - 0.14 in   Overcast